DELTA 1 DEB, 14904

Orbit data source: Space-Track

DELTA 1 DEB, 14904 is space debris in SSO originally from a launch on Thu, 29 Jul 1976 UTC launched from the Air Force Western Test Range (AFWTR). Debris objects in space refer to the collection of defunct objects orbiting the Earth. Examples of debris include non-operational satellites, rocket bodies, and fragments generated from explosions, collisions, or faulty payload assembly.

Loading next visibility...
Identifier
14904, 1976-077ES
Orbit
SSO
Country
Flag of USUS
Related business
Manufacturer
Unknown
Mission
Spacecraft
Bus & Motor
Unknown
Mass
Unknown
Launch date (UTC)
1976-07-29 (50 years ago)
Launch vehicle
Unknown
Launch site
Air Force Western Test Range (AFWTR)
Object type
Payload
Rocket body
Debris
Shape & HBR
Unknown shape, 0.1 m
Radar Cross Section
Medium (>0.1 m² and <1 m²)

Expand to show TLE details & history
Last TLE update: 3 days ago

TLE from 3 days ago
0 DELTA 1 DEB
1 14904U 76077ES  26262.71634443  .00000591  00000-0  31084-2 0  9998
2 14904 102.7207 194.2546 0001843 350.8834 126.2070 12.73211075605319
Epoch: 2026-09-19T17:11Z
TLE epoch observation values (Epoch: 2026-09-19T17:11:32.158Z)
Latitude
60.35532°
Longitude
140.99611°
Altitude
1,379.789 km
Speed
7.175 km/s
True Right ascension
02h 30m 00s
True Declination
60° 13' 09"
Sunlit
Object was in daylight at epoch
Visualization orbit readout
Latitude
Unknown
Longitude
Unknown
Altitude
Unknown
Speed
Unknown
Apparent Right ascension
Unknown
Apparent Declination
Unknown
Sunlit
N/A
Visualization observer readout
Local Sidereal Time
17:47:26
Azimuth
Unknown
Elevation
Unknown
Doppler factor
Unknown
Orbital elements
Apogee altitude
1,367.891 km
Perigee altitude
1,365.036 km
Semi-major axis
7,744.6 km
Eccentricity
0.00018
Inclination
102.7207°
RAAN
194.2546°
Arg. of periapsis
350.8834°
True anomaly
126.22404°
Mean anomaly
126.207°
Eccentric anomaly
126.21552°
Mean motion
3.18452 °/min
Orbital period
113.05 mins
BSTAR
0.0031084
Loading maneuver chart data...
Computing Atmospheric mass density...
Loading historical data...
Loading historical data...
Loading historical data...
Loading historical data...
Loading historical data...
Loading historical data...
Loading historical data...

Documentation

Showing up to 5 results
|